Flag for Nigeria Weather past 2 weeks in Enugu, Nigeria

Now
75 °F

Partly cloudy.


Feels Like: 74 °F
Forecast: 73 / 85 °F
Wind: 5 mph from Southeast

Location: Malabo/Fernando Poo

Current Time: Jul 28, 2014 at 6:56:05 AM

Latest Report: Jul 28, 2014 at 6:00 AM


Visibility: N/A

Pressure: 29.95 "Hg

Humidity: 94%

Dew point: 73 °F

Location of EnuguLocation

Historic Weather in Enugu — Graph

°F

Enugu temperature yesterday

Maximum temperature yesterday: 82 °F (at 11:00 AM)
Minimum temperature yesterday: 73 °F (at 2:00 AM)
Average temperature yesterday: 77 °F

Past Weeks' High & Low Weather Summary

 TemperatureHumidityPressure
High86 °F (Jul 13, 1:00 PM)94% (Jul 13, 5:00 AM)30.07 "Hg (Jul 13, 5:00 AM)
Low72 °F (Jul 15, 12:00 PM)62% (Jul 13, 1:00 PM)29.89 "Hg (Jul 26, 4:00 PM)
Average77 °F85%29.98 "Hg
* Reported Jul 13 5:00 AM — Jul 28 5:00 AM, Enugu, Weather by CustomWeather, © 2014

Note: Actual official high and low records may vary slightly from our data, if they occured in-between our weather recording intervals... More about our weather records

Advertising

Enugu weather history for previous 24 hours

 ConditionsComfort  
Time TempWeatherWind HumidityBarometerVisibility
5:00 AM
Jul 28
75 °FPartly cloudy.2 mph94%29.95 "HgN/A
4:00 AM75 °FPassing clouds.3 mph94%29.95 "HgN/A
3:00 AM75 °FPassing clouds.3 mph94%29.95 "Hg5 mi
2:00 AM75 °FRain. Passing clouds.2 mph94%29.95 "Hg3 mi
1:00 AM73 °FPassing clouds.No wind94%29.95 "HgN/A
12:00 AM75 °FPartly cloudy.3 mph89%29.95 "HgN/A
11:00 PM
Jul 27
75 °FPartly cloudy.2 mph89%29.98 "HgN/A
8:00 PM77 °FPartly cloudy.3 mph83%29.92 "HgN/A
7:00 PM77 °FPartly cloudy.No wind83%29.92 "HgN/A
6:00 PM77 °FScattered clouds.3 mph83%29.89 "HgN/A
5:00 PM79 °FBroken clouds.9 mph79%29.89 "Hg6 mi
4:00 PM79 °FBroken clouds.12 mph84%29.89 "Hg6 mi
3:00 PM82 °FPartly sunny.10 mph70%29.89 "HgN/A
2:00 PM81 °FPartly sunny.9 mph79%29.92 "HgN/A
1:00 PM81 °FBroken clouds.12 mph79%29.95 "HgN/A
11:00 AM82 °FPartly sunny.9 mph74%29.98 "HgN/A
10:00 AM81 °FBroken clouds.6 mph79%29.98 "Hg5 mi
9:00 AM77 °FDrizzle. Broken clouds.6 mph89%29.98 "Hg4 mi
7:00 AM75 °FBroken clouds.3 mph89%29.95 "Hg4 mi
Weather by CustomWeather, © 2014

See weather overviewHow to use our weather pages